Tracking 19634 objects as of 22-May-2019
HD Live streaming from Space Station
objects crossing your sky now

PEASSS

Track PEASSS now!
10-day predictions


NORAD ID: 42015
Int'l Code: 2017-008BV
Perigee: 495.3 km
Apogee: 501.8 km
Inclination: 97.4 °
Period: 94.4 minutes
Semi major axis: 6869 km
RCS: Unknown
Launch date: February 15, 2017
Source: Netherlands (NETH)
Launch site: SRIHARIKOTA (SRI)
aabbcc
Your satellite tracking list
Your tracking list is empty




NASA's NSSDC Master Catalog

Two Line Element Set (TLE):
1 42015U 17008BV  19141.16495652  .00000896  00000-0  38987-4 0  9994
2 42015  97.4035 208.0339 0004696 269.9942  90.0757 15.24798086125403
Source of the keplerian elements: AFSPC